Location: ?????????
(53.2086°N, 54.0693°E)
Time: 17:51:46
(UTC+00:00)

NOAA 11 - Pass Details

Date: 08 December 2019
Orbit: 833 x 849 km, 98.4° (Epoch: 19 January)

Event Time Altitude Azimuth Distance (km) Brightness Sun altitude
Rises 14:09:46 0° 142° (SE) 3,386 7.1 -17.2°
Reaches altitude 10° 14:12:12 10° 136° (SE) 2,457 6.3 -17.5°
Maximum altitude 14:17:22 46° 65° (ENE) 1,122 4.4 -18.3°
Drops below altitude 10° 14:22:36 10° 354° (N) 2,483 6.6 -19.0°
Sets 14:25:04 0° 348° (NNW) 3,424 7.4 -19.4°
